Showing default

KOREASAT 6A, 61910

Orbit data source: Space-Track

KOREASAT 6A, 61910 is a payload satellite owned by KT Sat (KR) in GEO that was launched on Mon, 11 Nov 2024 UTC via an FALCON 9 launch vehicle from the Air Force Eastern Test Range (AFETR). Payloads include a variety of satellites, spacecraft, and rockets equipped with specific instruments for various scientific and technological missions. These include communications satellites like Starlink; space stations such as the ISS; scientific satellites like the Hubble; Earth observation satellites from companies like Planet Labs, Umbra, and HawkEye 360; GPS; miniature CubeSats for education and research; and military/defense satellites.

Not visible in the next 10 days
KOREASAT 6A details
Identifier
61910, 2024-206A
Orbit
GEO
Last TLE update4 hours ago
Origin
Flag of KRKT Sat (KR / SKOR)
ManufacturerThales Alenia
MissionOperational spacecraft
Bus & MotorSPACEBUS 4000B2, S400
Mass~3,500 kg wet, ~2,000 kg dry
Launch date (UTC)
2024-11-11 (1 month ago)
Launch vehicle
FALCON 9
Launch site
Air Force Eastern Test Range (AFETR)
Object type
Payload
Rocket body
Debris
Shape & HBRUnknown
Radar Cross SectionRCS unknown

Expand to show TLE details & history

TLE from 4 hours ago
0 KOREASAT 6A
1 61910U 24206A   24348.76076608 -.00000349  00000-0  00000+0 0  9998
2 61910   0.0597 167.3947 0001710  25.3645 280.0594  1.00270873   445
Epoch: 2024-12-13T18:15Z
Definitive object data (Epoch: 2024-12-13T18:15:30.189Z)
Latitude-0.03347°
Longitude115.99167°
Altitude35,785.122 km
Speed3.075 km/s
True Right ascension07h 31m 09s
True Declination0° 02' 00"
Sunlit
Object was in daylight at TLE epoch
Visualization TLE readout
Latitude-0.0186°
Longitude170.57211°
Altitude35,779.888 km
Speed3.075 km/s
Apparent Right ascension10h 53m 24s
Apparent Declination-5° 04' 42"
Sunlit
Object is in daylight
Visualization observer readout
Local Sidereal Time20:24:59
Azimuth306.331° NW
Elevation-41.769°
Doppler factor1
Orbital elements
Apogee altitude35,795.131 km
Perigee altitude35,780.711 km
Semi-major axis42,166.058 km
Eccentricity0.000171
Inclination0.0597°
RAAN167.3947°
Arg. of periapsis25.3645°
True anomaly280.04011°
Mean anomaly280.0594°
Eccentric anomaly280.04975°
Mean motion0.25067 °/min
BSTARUnknown
Orbital period1436.16 mins
Loading historical data...
61910 neighbors
Authenticating...
Loading maneuver chart data...
Loading historical data...
Loading historical data...
Loading historical data...
Loading historical data...
Loading historical data...
Loading historical data...
Loading historical data...
Other satellites on launch #206 in the year 2024 (2024-11-11 UTC)

KOREASAT 6A Visibility forecast

Observer location: undefined°, undefined

KOREASAT 6A is not visible in the next 10 days
Span
Click to sort rows by Start time (UTC) header in descending order
Start Az.
Max El. time (UTC)
Max El. Az.
Max El.
End time (UTC)
End Az.
|